Starlink 32424

operational
NORAD ID: 61548 Int'l Des: 2024-184 Owner: SPXS Country: US Constellation: starlink
LEOCIRCULAR

关于 Starlink 32424

正在加载描述...

实时位置

正在加载3D地球...

即将过境

高度历史

Altitude vs Time

uPlot chart will show altitude changes over time

两行轨道根数

1 61548U 24184S 25259.88275726 -.00001313 00000-0 -32241-4 0 9997
2 61548 53.1593 101.4485 0000820 104.3485 255.7607 15.30180824 51897
Epoch: Sep 16, 2025 • Age: 29 hours

当前状态

高度 480.7 km
速度 7.63 km/s
星下点 50.21°N, 136.3°E
发射日期 Oct 15, 2024
运行时间 0.9 years
类型 internet

技术详情

分类 Payload
质量 730.00 kg
干质量 700.00 kg
总质量 730.00 kg
长度 0.30 m
直径 4.10 m
跨度 29.00 m
形状 Box + pan
制造商 SPXS
平台类型 Starlink V2M
阶段状态 In Orbit
所有者/国家 SPXS/US

大型星座

Loading constellations...